#datetime,building,power
2023-09-16T00:00:00,pth,2.40
2023-09-16T00:01:00,pth,1.20
2023-09-16T00:03:00,pth,1.20
2023-09-16T00:04:00,pth,1.20
2023-09-16T00:06:00,pth,2.40
2023-09-16T00:07:00,pth,1.20
2023-09-16T00:09:00,pth,2.40
2023-09-16T00:11:00,pth,3.60
2023-09-16T00:14:00,pth,3.60
2023-09-16T00:16:00,pth,1.20
2023-09-16T00:17:00,pth,1.20
2023-09-16T00:19:00,pth,2.40
2023-09-16T00:21:00,pth,2.40
2023-09-16T00:23:00,pth,2.40
2023-09-16T00:25:00,pth,2.40
2023-09-16T00:27:00,pth,2.40
2023-09-16T00:29:00,pth,2.40
2023-09-16T00:30:00,pth,1.20
2023-09-16T00:32:00,pth,2.40
2023-09-16T00:33:00,pth,1.20
2023-09-16T00:35:00,pth,2.40
2023-09-16T00:36:00,pth,1.20
2023-09-16T00:39:00,pth,2.40
2023-09-16T00:41:00,pth,2.40
2023-09-16T00:43:00,pth,2.40
2023-09-16T00:45:00,pth,2.40
2023-09-16T00:48:00,pth,2.40
2023-09-16T00:49:00,pth,1.20
2023-09-16T00:51:00,pth,2.40
2023-09-16T00:52:00,pth,1.20
2023-09-16T00:54:00,pth,2.40
2023-09-16T00:55:00,pth,1.20
2023-09-16T00:57:00,pth,1.20
2023-09-16T00:59:00,pth,2.40
2023-09-16T01:00:00,pth,1.20
2023-09-16T01:02:00,pth,2.40
2023-09-16T01:04:00,pth,2.40
2023-09-16T01:06:00,pth,2.40
2023-09-16T01:08:00,pth,2.40
2023-09-16T01:10:00,pth,2.40
2023-09-16T01:11:00,pth,1.20
2023-09-16T01:13:00,pth,2.40
2023-09-16T01:15:00,pth,2.40
2023-09-16T01:17:00,pth,2.40
2023-09-16T01:19:00,pth,1.20
2023-09-16T01:21:00,pth,2.40
2023-09-16T01:23:00,pth,2.40
2023-09-16T01:24:00,pth,1.20
2023-09-16T01:26:00,pth,2.40
2023-09-16T01:28:00,pth,1.20
2023-09-16T01:30:00,pth,2.40
2023-09-16T01:31:00,pth,1.20
2023-09-16T01:33:00,pth,1.20
2023-09-16T01:35:00,pth,2.40
2023-09-16T01:38:00,pth,2.40
2023-09-16T01:39:00,pth,1.20
2023-09-16T01:41:00,pth,2.40
2023-09-16T01:43:00,pth,1.20
2023-09-16T01:45:00,pth,2.40
2023-09-16T01:47:00,pth,2.40
2023-09-16T01:48:00,pth,1.20
2023-09-16T01:50:00,pth,1.20
2023-09-16T01:51:00,pth,1.20
2023-09-16T01:53:00,pth,2.40
2023-09-16T01:54:00,pth,1.20
2023-09-16T01:55:00,pth,1.20
2023-09-16T01:57:00,pth,2.40
2023-09-16T01:59:00,pth,2.40
2023-09-16T02:00:00,pth,1.20
2023-09-16T02:01:00,pth,1.20
2023-09-16T02:03:00,pth,1.20
2023-09-16T02:05:00,pth,2.40
2023-09-16T02:07:00,pth,1.20
2023-09-16T02:09:00,pth,2.40
2023-09-16T02:10:00,pth,1.20
2023-09-16T02:12:00,pth,1.20
2023-09-16T02:13:00,pth,1.20
2023-09-16T02:14:00,pth,1.20
2023-09-16T02:16:00,pth,2.40
2023-09-16T02:17:00,pth,1.20
2023-09-16T02:19:00,pth,1.20
2023-09-16T02:21:00,pth,2.40
2023-09-16T02:22:00,pth,1.20
2023-09-16T02:24:00,pth,2.40
2023-09-16T02:25:00,pth,1.20
2023-09-16T02:27:00,pth,2.40
2023-09-16T02:28:00,pth,1.20
2023-09-16T02:30:00,pth,1.20
2023-09-16T02:32:00,pth,2.40
2023-09-16T02:34:00,pth,2.40
2023-09-16T02:36:00,pth,1.20
2023-09-16T02:38:00,pth,2.40
2023-09-16T02:40:00,pth,1.20
2023-09-16T02:41:00,pth,1.20
2023-09-16T02:42:00,pth,1.20
2023-09-16T02:44:00,pth,2.40
2023-09-16T02:47:00,pth,2.40
2023-09-16T02:48:00,pth,1.20
2023-09-16T02:50:00,pth,2.40
2023-09-16T02:52:00,pth,2.40
2023-09-16T02:55:00,pth,2.40
2023-09-16T02:56:00,pth,1.20
2023-09-16T02:58:00,pth,2.40
2023-09-16T02:59:00,pth,1.20
2023-09-16T03:00:00,pth,1.20
2023-09-16T03:02:00,pth,2.40
2023-09-16T03:03:00,pth,1.20
2023-09-16T03:05:00,pth,2.40
2023-09-16T03:06:00,pth,1.20
2023-09-16T03:08:00,pth,1.20
2023-09-16T03:10:00,pth,2.40
2023-09-16T03:12:00,pth,2.40
2023-09-16T03:14:00,pth,1.20
2023-09-16T03:16:00,pth,2.40
2023-09-16T03:17:00,pth,1.20
2023-09-16T03:19:00,pth,1.20
2023-09-16T03:21:00,pth,2.40
2023-09-16T03:23:00,pth,1.20
2023-09-16T03:24:00,pth,1.20
2023-09-16T03:26:00,pth,2.40
2023-09-16T03:27:00,pth,1.20
2023-09-16T03:29:00,pth,1.20
2023-09-16T03:31:00,pth,2.40
2023-09-16T03:34:00,pth,2.40
2023-09-16T03:35:00,pth,1.20
2023-09-16T03:38:00,pth,2.40
2023-09-16T03:40:00,pth,1.20
2023-09-16T03:41:00,pth,1.20
2023-09-16T03:43:00,pth,2.40
2023-09-16T03:44:00,pth,1.20
2023-09-16T03:46:00,pth,1.20
2023-09-16T03:47:00,pth,1.20
2023-09-16T03:49:00,pth,1.20
2023-09-16T03:51:00,pth,2.40
2023-09-16T03:53:00,pth,1.20
2023-09-16T03:55:00,pth,2.40
2023-09-16T03:57:00,pth,1.20
2023-09-16T03:58:00,pth,1.20
2023-09-16T04:00:00,pth,2.40
2023-09-16T04:02:00,pth,1.20
2023-09-16T04:04:00,pth,2.40
2023-09-16T04:06:00,pth,1.20
2023-09-16T04:08:00,pth,2.40
2023-09-16T04:10:00,pth,1.20
2023-09-16T04:11:00,pth,1.20
2023-09-16T04:13:00,pth,2.40
2023-09-16T04:15:00,pth,1.20
2023-09-16T04:17:00,pth,2.40
2023-09-16T04:18:00,pth,1.20
2023-09-16T04:20:00,pth,1.20
2023-09-16T04:21:00,pth,1.20
2023-09-16T04:22:00,pth,1.20
2023-09-16T04:24:00,pth,1.20
2023-09-16T04:25:00,pth,1.20
2023-09-16T04:27:00,pth,1.20
2023-09-16T04:28:00,pth,1.20
2023-09-16T04:30:00,pth,2.40
2023-09-16T04:33:00,pth,2.40
2023-09-16T04:35:00,pth,1.20
2023-09-16T04:37:00,pth,2.40
2023-09-16T04:39:00,pth,2.40
2023-09-16T04:41:00,pth,1.20
2023-09-16T04:43:00,pth,2.40
2023-09-16T04:45:00,pth,2.40
2023-09-16T04:47:00,pth,2.40
2023-09-16T04:49:00,pth,1.20
2023-09-16T04:51:00,pth,2.40
2023-09-16T04:53:00,pth,2.40
2023-09-16T04:55:00,pth,2.40
2023-09-16T04:57:00,pth,2.40
2023-09-16T04:58:00,pth,1.20
2023-09-16T05:00:00,pth,2.40
2023-09-16T05:01:00,pth,1.20
2023-09-16T05:03:00,pth,2.40
2023-09-16T05:06:00,pth,2.40
2023-09-16T05:07:00,pth,1.20
2023-09-16T05:09:00,pth,2.40
2023-09-16T05:10:00,pth,1.20
2023-09-16T05:11:00,pth,1.20
2023-09-16T05:13:00,pth,2.40
2023-09-16T05:15:00,pth,1.20
2023-09-16T05:17:00,pth,2.40
2023-09-16T05:19:00,pth,2.40
2023-09-16T05:21:00,pth,2.40
2023-09-16T05:23:00,pth,1.20
2023-09-16T05:25:00,pth,2.40
2023-09-16T05:27:00,pth,2.40
2023-09-16T05:29:00,pth,2.40
2023-09-16T05:31:00,pth,1.20
2023-09-16T05:32:00,pth,1.20
2023-09-16T05:34:00,pth,4.80
2023-09-16T05:35:00,pth,1.20
2023-09-16T05:37:00,pth,4.80
2023-09-16T05:39:00,pth,1.20
2023-09-16T05:41:00,pth,2.40
2023-09-16T05:42:00,pth,1.20
2023-09-16T05:44:00,pth,1.20
2023-09-16T05:45:00,pth,1.20
2023-09-16T05:47:00,pth,2.40
2023-09-16T05:49:00,pth,1.20
2023-09-16T05:51:00,pth,2.40
2023-09-16T05:54:00,pth,2.40
2023-09-16T05:56:00,pth,2.40
2023-09-16T05:58:00,pth,1.20
2023-09-16T06:00:00,pth,2.40
2023-09-16T06:02:00,pth,2.40
2023-09-16T06:04:00,pth,1.20
2023-09-16T06:06:00,pth,2.40
2023-09-16T06:08:00,pth,1.20
2023-09-16T06:10:00,pth,2.40
2023-09-16T06:12:00,pth,1.20
2023-09-16T06:14:00,pth,2.40
2023-09-16T06:15:00,pth,1.20
2023-09-16T06:17:00,pth,1.20
2023-09-16T06:18:00,pth,1.20
2023-09-16T06:20:00,pth,2.40
2023-09-16T06:22:00,pth,1.20
2023-09-16T06:24:00,pth,2.40
2023-09-16T06:25:00,pth,1.20
2023-09-16T06:27:00,pth,1.20
2023-09-16T06:28:00,pth,1.20
2023-09-16T06:30:00,pth,2.40
2023-09-16T06:32:00,pth,1.20
2023-09-16T06:33:00,pth,1.20
2023-09-16T06:35:00,pth,2.40
2023-09-16T06:36:00,pth,1.20
2023-09-16T06:38:00,pth,1.20
2023-09-16T06:39:00,pth,1.20
2023-09-16T06:41:00,pth,2.40
2023-09-16T06:43:00,pth,1.20
2023-09-16T06:44:00,pth,1.20
2023-09-16T06:45:00,pth,1.20
2023-09-16T06:47:00,pth,2.40
2023-09-16T06:49:00,pth,2.40
2023-09-16T06:51:00,pth,2.40
2023-09-16T06:52:00,pth,1.20
2023-09-16T06:53:00,pth,1.20
2023-09-16T06:55:00,pth,2.40
2023-09-16T06:57:00,pth,1.20
2023-09-16T06:58:00,pth,1.20
2023-09-16T07:00:00,pth,2.40
2023-09-16T07:01:00,pth,1.20
2023-09-16T07:02:00,pth,1.20
2023-09-16T07:04:00,pth,2.40
2023-09-16T07:06:00,pth,1.20
2023-09-16T07:07:00,pth,1.20
2023-09-16T07:09:00,pth,2.40
2023-09-16T07:10:00,pth,1.20
2023-09-16T07:12:00,pth,2.40
2023-09-16T07:14:00,pth,3.60
2023-09-16T07:16:00,pth,3.60
2023-09-16T07:18:00,pth,2.40
2023-09-16T07:20:00,pth,1.20
2023-09-16T07:22:00,pth,2.40
2023-09-16T07:24:00,pth,1.20
2023-09-16T07:26:00,pth,1.20
2023-09-16T07:28:00,pth,2.40
2023-09-16T07:30:00,pth,1.20
2023-09-16T07:32:00,pth,2.40
2023-09-16T07:33:00,pth,1.20
2023-09-16T07:35:00,pth,1.20
2023-09-16T07:37:00,pth,1.20
2023-09-16T07:38:00,pth,1.20
2023-09-16T07:40:00,pth,2.40
2023-09-16T07:42:00,pth,1.20
2023-09-16T07:44:00,pth,2.40
2023-09-16T07:46:00,pth,1.20
2023-09-16T07:48:00,pth,2.40
2023-09-16T07:50:00,pth,1.20
2023-09-16T07:51:00,pth,1.20
2023-09-16T07:53:00,pth,1.20
2023-09-16T07:55:00,pth,1.20
2023-09-16T07:57:00,pth,2.40
2023-09-16T08:00:00,pth,2.40
2023-09-16T08:02:00,pth,2.40
2023-09-16T08:04:00,pth,1.20
2023-09-16T08:05:00,pth,1.20
2023-09-16T08:07:00,pth,1.20
2023-09-16T08:08:00,pth,1.20
2023-09-16T08:10:00,pth,1.20
2023-09-16T08:11:00,pth,1.20
2023-09-16T08:14:00,pth,2.40
2023-09-16T08:15:00,pth,1.20
2023-09-16T08:17:00,pth,1.20
2023-09-16T08:20:00,pth,2.40
2023-09-16T08:22:00,pth,1.20
2023-09-16T08:24:00,pth,1.20
2023-09-16T08:26:00,pth,1.20
2023-09-16T08:28:00,pth,2.40
2023-09-16T08:29:00,pth,1.20
2023-09-16T08:32:00,pth,1.20
2023-09-16T08:33:00,pth,1.20
2023-09-16T08:35:00,pth,1.20
2023-09-16T08:37:00,pth,1.20
2023-09-16T08:38:00,pth,1.20
2023-09-16T08:40:00,pth,1.20
2023-09-16T08:42:00,pth,2.40
2023-09-16T08:44:00,pth,1.20
2023-09-16T08:46:00,pth,2.40
2023-09-16T08:49:00,pth,2.40
2023-09-16T08:51:00,pth,2.40
2023-09-16T08:52:00,pth,1.20
2023-09-16T08:53:00,pth,1.20
2023-09-16T08:55:00,pth,3.60
2023-09-16T08:57:00,pth,3.60
2023-09-16T08:59:00,pth,3.60
2023-09-16T09:00:00,pth,1.20
2023-09-16T09:01:00,pth,1.20
2023-09-16T09:03:00,pth,1.20
2023-09-16T09:05:00,pth,1.20
2023-09-16T09:07:00,pth,2.40
2023-09-16T09:09:00,pth,1.20
2023-09-16T09:11:00,pth,1.20
2023-09-16T09:13:00,pth,1.20
2023-09-16T09:15:00,pth,1.20
2023-09-16T09:16:00,pth,1.20
2023-09-16T09:18:00,pth,3.60
2023-09-16T09:19:00,pth,1.20
2023-09-16T09:20:00,pth,1.20
2023-09-16T09:22:00,pth,1.20
2023-09-16T09:24:00,pth,2.40
2023-09-16T09:26:00,pth,1.20
2023-09-16T09:28:00,pth,3.60
2023-09-16T09:30:00,pth,1.20
2023-09-16T09:31:00,pth,1.20
2023-09-16T09:33:00,pth,1.20
2023-09-16T09:35:00,pth,2.40
2023-09-16T09:37:00,pth,1.20
2023-09-16T09:38:00,pth,1.20
2023-09-16T09:40:00,pth,1.20
2023-09-16T09:41:00,pth,1.20
2023-09-16T09:43:00,pth,1.20
2023-09-16T09:44:00,pth,1.20
2023-09-16T09:48:00,pth,3.60
2023-09-16T09:49:00,pth,1.20
2023-09-16T09:51:00,pth,3.60
2023-09-16T09:52:00,pth,1.20
2023-09-16T09:54:00,pth,1.20
2023-09-16T09:56:00,pth,2.40
2023-09-16T09:58:00,pth,1.20
2023-09-16T10:00:00,pth,1.20
2023-09-16T10:02:00,pth,2.40
2023-09-16T10:04:00,pth,3.60
2023-09-16T10:05:00,pth,1.20
2023-09-16T10:07:00,pth,4.80
2023-09-16T10:09:00,pth,3.60
2023-09-16T10:10:00,pth,2.40
2023-09-16T10:12:00,pth,4.80
2023-09-16T10:14:00,pth,3.60
2023-09-16T10:15:00,pth,2.40
2023-09-16T10:17:00,pth,1.20
2023-09-16T10:19:00,pth,2.40
2023-09-16T10:22:00,pth,2.40
2023-09-16T10:25:00,pth,2.40
2023-09-16T10:28:00,pth,2.40
2023-09-16T10:30:00,pth,1.20
2023-09-16T10:31:00,pth,2.40
2023-09-16T10:33:00,pth,3.60
2023-09-16T10:34:00,pth,1.20
2023-09-16T10:36:00,pth,3.60
2023-09-16T10:37:00,pth,1.20
2023-09-16T10:39:00,pth,1.20
2023-09-16T10:40:00,pth,1.20
2023-09-16T10:42:00,pth,2.40
2023-09-16T10:43:00,pth,1.20
2023-09-16T10:45:00,pth,1.20
2023-09-16T10:47:00,pth,2.40
2023-09-16T10:50:00,pth,2.40
2023-09-16T10:51:00,pth,1.20
2023-09-16T10:53:00,pth,1.20
2023-09-16T10:55:00,pth,2.40
2023-09-16T10:57:00,pth,1.20
2023-09-16T10:59:00,pth,2.40
2023-09-16T11:00:00,pth,1.20
2023-09-16T11:02:00,pth,2.40
2023-09-16T11:04:00,pth,1.20
2023-09-16T11:06:00,pth,2.40
2023-09-16T11:08:00,pth,1.20
2023-09-16T11:09:00,pth,1.20
2023-09-16T11:11:00,pth,1.20
2023-09-16T11:13:00,pth,2.40
2023-09-16T11:15:00,pth,1.20
2023-09-16T11:17:00,pth,2.40
2023-09-16T11:18:00,pth,1.20
2023-09-16T11:20:00,pth,1.20
2023-09-16T11:22:00,pth,2.40
2023-09-16T11:25:00,pth,2.40
2023-09-16T11:28:00,pth,1.20
2023-09-16T11:29:00,pth,1.20
2023-09-16T11:31:00,pth,1.20
2023-09-16T11:32:00,pth,1.20
2023-09-16T11:34:00,pth,1.20
2023-09-16T11:36:00,pth,1.20
2023-09-16T11:38:00,pth,2.40
2023-09-16T11:40:00,pth,1.20
2023-09-16T11:42:00,pth,1.20
2023-09-16T11:43:00,pth,1.20
2023-09-16T11:45:00,pth,1.20
2023-09-16T11:46:00,pth,1.20
2023-09-16T11:48:00,pth,1.20
2023-09-16T11:50:00,pth,1.20
2023-09-16T11:52:00,pth,1.20
2023-09-16T11:53:00,pth,1.20
2023-09-16T11:55:00,pth,1.20
2023-09-16T11:56:00,pth,1.20
2023-09-16T11:57:00,pth,1.20
2023-09-16T11:59:00,pth,1.20
2023-09-16T12:01:00,pth,2.40
2023-09-16T12:04:00,pth,1.20
2023-09-16T12:06:00,pth,2.40
2023-09-16T12:09:00,pth,2.40
2023-09-16T12:11:00,pth,1.20
2023-09-16T12:12:00,pth,1.20
2023-09-16T12:14:00,pth,1.20
2023-09-16T12:15:00,pth,1.20
2023-09-16T12:17:00,pth,1.20
2023-09-16T12:18:00,pth,1.20
2023-09-16T12:20:00,pth,2.40
2023-09-16T12:22:00,pth,1.20
2023-09-16T12:24:00,pth,2.40
2023-09-16T12:26:00,pth,1.20
2023-09-16T12:27:00,pth,1.20
2023-09-16T12:29:00,pth,1.20
2023-09-16T12:31:00,pth,2.40
2023-09-16T12:33:00,pth,1.20
2023-09-16T12:34:00,pth,1.20
2023-09-16T12:36:00,pth,2.40
2023-09-16T12:39:00,pth,2.40
2023-09-16T12:40:00,pth,1.20
2023-09-16T12:42:00,pth,2.40
2023-09-16T12:43:00,pth,1.20
2023-09-16T12:45:00,pth,1.20
2023-09-16T12:46:00,pth,1.20
2023-09-16T12:48:00,pth,2.40
2023-09-16T12:51:00,pth,2.40
2023-09-16T12:53:00,pth,1.20
2023-09-16T12:54:00,pth,1.20
2023-09-16T12:55:00,pth,1.20
2023-09-16T12:57:00,pth,1.20
2023-09-16T12:58:00,pth,1.20
2023-09-16T13:00:00,pth,1.20
2023-09-16T13:02:00,pth,2.40
2023-09-16T13:03:00,pth,1.20
2023-09-16T13:05:00,pth,1.20
2023-09-16T13:06:00,pth,1.20
2023-09-16T13:07:00,pth,1.20
2023-09-16T13:09:00,pth,1.20
2023-09-16T13:11:00,pth,1.20
2023-09-16T13:12:00,pth,1.20
2023-09-16T13:13:00,pth,1.20
2023-09-16T13:15:00,pth,1.20
2023-09-16T13:17:00,pth,1.20
2023-09-16T13:18:00,pth,1.20
2023-09-16T13:20:00,pth,2.40
2023-09-16T13:22:00,pth,1.20
2023-09-16T13:24:00,pth,1.20
2023-09-16T13:25:00,pth,1.20
2023-09-16T13:27:00,pth,2.40
2023-09-16T13:29:00,pth,1.20
2023-09-16T13:30:00,pth,1.20
2023-09-16T13:31:00,pth,1.20
2023-09-16T13:33:00,pth,1.20
2023-09-16T13:34:00,pth,1.20
2023-09-16T13:36:00,pth,3.60
2023-09-16T13:37:00,pth,2.40
2023-09-16T13:38:00,pth,2.40
2023-09-16T13:40:00,pth,2.40
2023-09-16T13:41:00,pth,1.20
2023-09-16T13:43:00,pth,1.20
2023-09-16T13:45:00,pth,1.20
2023-09-16T13:47:00,pth,2.40
2023-09-16T13:49:00,pth,1.20
2023-09-16T13:51:00,pth,1.20
2023-09-16T13:53:00,pth,1.20
2023-09-16T13:54:00,pth,1.20
2023-09-16T13:56:00,pth,1.20
2023-09-16T13:58:00,pth,1.20
2023-09-16T13:59:00,pth,1.20
2023-09-16T14:01:00,pth,1.20
2023-09-16T14:03:00,pth,1.20
2023-09-16T14:06:00,pth,1.20
2023-09-16T14:08:00,pth,1.20
2023-09-16T14:10:00,pth,1.20
2023-09-16T14:12:00,pth,1.20
2023-09-16T14:14:00,pth,2.40
2023-09-16T14:16:00,pth,1.20
2023-09-16T14:19:00,pth,1.20
2023-09-16T14:21:00,pth,2.40
2023-09-16T14:23:00,pth,2.40
2023-09-16T14:25:00,pth,1.20
2023-09-16T14:27:00,pth,2.40
2023-09-16T14:29:00,pth,1.20
2023-09-16T14:31:00,pth,1.20
2023-09-16T14:33:00,pth,2.40
2023-09-16T14:35:00,pth,1.20
2023-09-16T14:37:00,pth,1.20
2023-09-16T14:38:00,pth,2.40
2023-09-16T14:40:00,pth,2.40
2023-09-16T14:42:00,pth,2.40
2023-09-16T14:43:00,pth,1.20
2023-09-16T14:45:00,pth,2.40
2023-09-16T14:47:00,pth,1.20
2023-09-16T14:49:00,pth,1.20
2023-09-16T14:50:00,pth,1.20
2023-09-16T14:53:00,pth,1.20
2023-09-16T14:55:00,pth,2.40
2023-09-16T14:57:00,pth,1.20
2023-09-16T14:59:00,pth,13.20
2023-09-16T15:01:00,pth,12.00
2023-09-16T15:02:00,pth,7.20
2023-09-16T15:04:00,pth,12.00
2023-09-16T15:06:00,pth,13.20
2023-09-16T15:08:00,pth,12.00
2023-09-16T15:10:00,pth,9.60
2023-09-16T15:12:00,pth,9.60
2023-09-16T15:13:00,pth,6.00
2023-09-16T15:15:00,pth,7.20
2023-09-16T15:16:00,pth,6.00
2023-09-16T15:18:00,pth,10.80
2023-09-16T15:20:00,pth,9.60
2023-09-16T15:22:00,pth,8.40
2023-09-16T15:24:00,pth,10.80
2023-09-16T15:25:00,pth,7.20
2023-09-16T15:27:00,pth,7.20
2023-09-16T15:29:00,pth,12.00
2023-09-16T15:30:00,pth,2.40
2023-09-16T15:32:00,pth,13.20
2023-09-16T15:34:00,pth,9.60
2023-09-16T15:35:00,pth,7.20
2023-09-16T15:36:00,pth,6.00
2023-09-16T15:38:00,pth,8.40
2023-09-16T15:40:00,pth,9.60
2023-09-16T15:42:00,pth,10.80
2023-09-16T15:44:00,pth,2.40
2023-09-16T15:46:00,pth,2.40
2023-09-16T15:48:00,pth,2.40
2023-09-16T15:50:00,pth,1.20
2023-09-16T15:52:00,pth,2.40
2023-09-16T15:54:00,pth,2.40
2023-09-16T15:56:00,pth,2.40
2023-09-16T15:58:00,pth,2.40
2023-09-16T16:01:00,pth,2.40
2023-09-16T16:03:00,pth,2.40
2023-09-16T16:05:00,pth,2.40
2023-09-16T16:07:00,pth,2.40
2023-09-16T16:09:00,pth,2.40
2023-09-16T16:10:00,pth,1.20
2023-09-16T16:12:00,pth,2.40
2023-09-16T16:13:00,pth,1.20
2023-09-16T16:15:00,pth,3.60
2023-09-16T16:17:00,pth,3.60
2023-09-16T16:19:00,pth,2.40
2023-09-16T16:20:00,pth,1.20
2023-09-16T16:21:00,pth,2.40
2023-09-16T16:23:00,pth,2.40
2023-09-16T16:25:00,pth,2.40
2023-09-16T16:26:00,pth,1.20
2023-09-16T16:28:00,pth,3.60
2023-09-16T16:29:00,pth,1.20
2023-09-16T16:30:00,pth,1.20
2023-09-16T16:32:00,pth,3.60
2023-09-16T16:34:00,pth,3.60
2023-09-16T16:36:00,pth,3.60
2023-09-16T16:38:00,pth,3.60
2023-09-16T16:39:00,pth,8.40
2023-09-16T16:41:00,pth,14.40
2023-09-16T16:43:00,pth,14.40
2023-09-16T16:44:00,pth,6.00
2023-09-16T16:45:00,pth,7.20
2023-09-16T16:47:00,pth,13.20
2023-09-16T16:49:00,pth,13.20
2023-09-16T16:50:00,pth,7.20
2023-09-16T16:51:00,pth,6.00
2023-09-16T16:53:00,pth,13.20
2023-09-16T16:54:00,pth,7.20
2023-09-16T16:55:00,pth,6.00
2023-09-16T16:57:00,pth,13.20
2023-09-16T16:58:00,pth,7.20
2023-09-16T17:00:00,pth,13.20
2023-09-16T17:02:00,pth,12.00
2023-09-16T17:03:00,pth,7.20
2023-09-16T17:05:00,pth,13.20
2023-09-16T17:07:00,pth,13.20
2023-09-16T17:09:00,pth,6.00
2023-09-16T17:10:00,pth,1.20
2023-09-16T17:12:00,pth,2.40
2023-09-16T17:14:00,pth,2.40
2023-09-16T17:16:00,pth,2.40
2023-09-16T17:17:00,pth,1.20
2023-09-16T17:19:00,pth,1.20
2023-09-16T17:21:00,pth,3.60
2023-09-16T17:23:00,pth,2.40
2023-09-16T17:26:00,pth,2.40
2023-09-16T17:28:00,pth,2.40
2023-09-16T17:29:00,pth,1.20
2023-09-16T17:31:00,pth,2.40
2023-09-16T17:33:00,pth,2.40
2023-09-16T17:35:00,pth,2.40
2023-09-16T17:36:00,pth,1.20
2023-09-16T17:38:00,pth,2.40
2023-09-16T17:40:00,pth,2.40
2023-09-16T17:42:00,pth,2.40
2023-09-16T17:44:00,pth,1.20
2023-09-16T17:46:00,pth,2.40
2023-09-16T17:48:00,pth,2.40
2023-09-16T17:49:00,pth,1.20
2023-09-16T17:51:00,pth,2.40
2023-09-16T17:53:00,pth,2.40
2023-09-16T17:54:00,pth,1.20
2023-09-16T17:55:00,pth,1.20
2023-09-16T17:57:00,pth,2.40
2023-09-16T17:59:00,pth,2.40
2023-09-16T18:01:00,pth,3.60
2023-09-16T18:03:00,pth,2.40
2023-09-16T18:05:00,pth,2.40
2023-09-16T18:06:00,pth,1.20
2023-09-16T18:08:00,pth,2.40
2023-09-16T18:10:00,pth,2.40
2023-09-16T18:12:00,pth,2.40
2023-09-16T18:13:00,pth,1.20
2023-09-16T18:15:00,pth,2.40
2023-09-16T18:17:00,pth,2.40
2023-09-16T18:19:00,pth,2.40
2023-09-16T18:21:00,pth,2.40
2023-09-16T18:23:00,pth,2.40
2023-09-16T18:26:00,pth,2.40
2023-09-16T18:27:00,pth,1.20
2023-09-16T18:29:00,pth,3.60
2023-09-16T18:31:00,pth,2.40
2023-09-16T18:32:00,pth,1.20
2023-09-16T18:34:00,pth,2.40
2023-09-16T18:36:00,pth,1.20
2023-09-16T18:38:00,pth,2.40
2023-09-16T18:39:00,pth,1.20
2023-09-16T18:41:00,pth,1.20
2023-09-16T18:43:00,pth,2.40
2023-09-16T18:45:00,pth,1.20
2023-09-16T18:47:00,pth,2.40
2023-09-16T18:48:00,pth,1.20
2023-09-16T18:49:00,pth,1.20
2023-09-16T18:51:00,pth,2.40
2023-09-16T18:53:00,pth,2.40
2023-09-16T18:56:00,pth,2.40
2023-09-16T18:58:00,pth,2.40
2023-09-16T19:01:00,pth,2.40
2023-09-16T19:02:00,pth,1.20
2023-09-16T19:04:00,pth,2.40
2023-09-16T19:06:00,pth,1.20
2023-09-16T19:08:00,pth,2.40
2023-09-16T19:10:00,pth,3.60
2023-09-16T19:12:00,pth,2.40
2023-09-16T19:13:00,pth,1.20
2023-09-16T19:14:00,pth,1.20
2023-09-16T19:16:00,pth,2.40
2023-09-16T19:17:00,pth,1.20
2023-09-16T19:19:00,pth,2.40
2023-09-16T19:21:00,pth,2.40
2023-09-16T19:23:00,pth,2.40
2023-09-16T19:25:00,pth,2.40
2023-09-16T19:26:00,pth,1.20
2023-09-16T19:28:00,pth,3.60
2023-09-16T19:30:00,pth,2.40
2023-09-16T19:31:00,pth,2.40
2023-09-16T19:33:00,pth,2.40
2023-09-16T19:35:00,pth,3.60
2023-09-16T19:37:00,pth,2.40
2023-09-16T19:39:00,pth,3.60
2023-09-16T19:41:00,pth,2.40
2023-09-16T19:43:00,pth,2.40
2023-09-16T19:45:00,pth,2.40
2023-09-16T19:47:00,pth,2.40
2023-09-16T19:49:00,pth,3.60
2023-09-16T19:51:00,pth,2.40
2023-09-16T19:53:00,pth,2.40
2023-09-16T19:54:00,pth,1.20
2023-09-16T19:56:00,pth,3.60
2023-09-16T19:58:00,pth,2.40
2023-09-16T19:59:00,pth,1.20
2023-09-16T20:00:00,pth,1.20
2023-09-16T20:02:00,pth,3.60
2023-09-16T20:03:00,pth,1.20
2023-09-16T20:05:00,pth,2.40
2023-09-16T20:07:00,pth,2.40
2023-09-16T20:09:00,pth,3.60
2023-09-16T20:11:00,pth,2.40
2023-09-16T20:12:00,pth,1.20
2023-09-16T20:14:00,pth,2.40
2023-09-16T20:16:00,pth,3.60
2023-09-16T20:17:00,pth,1.20
2023-09-16T20:19:00,pth,2.40
2023-09-16T20:20:00,pth,1.20
2023-09-16T20:22:00,pth,2.40
2023-09-16T20:23:00,pth,1.20
2023-09-16T20:25:00,pth,2.40
2023-09-16T20:27:00,pth,2.40
2023-09-16T20:29:00,pth,2.40
2023-09-16T20:31:00,pth,2.40
2023-09-16T20:33:00,pth,2.40
2023-09-16T20:35:00,pth,6.00
2023-09-16T20:36:00,pth,2.40
2023-09-16T20:37:00,pth,1.20
2023-09-16T20:39:00,pth,2.40
2023-09-16T20:41:00,pth,3.60
2023-09-16T20:43:00,pth,4.80
2023-09-16T20:44:00,pth,1.20
2023-09-16T20:46:00,pth,4.80
2023-09-16T20:48:00,pth,3.60
2023-09-16T20:50:00,pth,3.60
2023-09-16T20:51:00,pth,2.40
2023-09-16T20:52:00,pth,1.20
2023-09-16T20:54:00,pth,3.60
2023-09-16T20:56:00,pth,2.40
2023-09-16T20:58:00,pth,2.40
2023-09-16T20:59:00,pth,2.40
2023-09-16T21:01:00,pth,2.40
2023-09-16T21:03:00,pth,3.60
2023-09-16T21:05:00,pth,2.40
2023-09-16T21:07:00,pth,3.60
2023-09-16T21:09:00,pth,2.40
2023-09-16T21:10:00,pth,1.20
2023-09-16T21:11:00,pth,1.20
2023-09-16T21:13:00,pth,3.60
2023-09-16T21:15:00,pth,2.40
2023-09-16T21:16:00,pth,2.40
2023-09-16T21:18:00,pth,2.40
2023-09-16T21:20:00,pth,2.40
2023-09-16T21:22:00,pth,2.40
2023-09-16T21:24:00,pth,3.60
2023-09-16T21:26:00,pth,2.40
2023-09-16T21:28:00,pth,3.60
2023-09-16T21:30:00,pth,2.40
2023-09-16T21:32:00,pth,2.40
2023-09-16T21:34:00,pth,2.40
2023-09-16T21:36:00,pth,4.80
2023-09-16T21:37:00,pth,7.20
2023-09-16T21:39:00,pth,14.40
2023-09-16T21:41:00,pth,14.40
2023-09-16T21:43:00,pth,14.40
2023-09-16T21:45:00,pth,14.40
2023-09-16T21:46:00,pth,7.20
2023-09-16T21:48:00,pth,13.20
2023-09-16T21:49:00,pth,7.20
2023-09-16T21:51:00,pth,13.20
2023-09-16T21:53:00,pth,14.40
2023-09-16T21:54:00,pth,7.20
2023-09-16T21:56:00,pth,13.20
2023-09-16T21:57:00,pth,7.20
2023-09-16T21:59:00,pth,14.40
2023-09-16T22:00:00,pth,6.00
2023-09-16T22:01:00,pth,7.20
2023-09-16T22:03:00,pth,14.40
2023-09-16T22:05:00,pth,13.20
2023-09-16T22:06:00,pth,1.20
2023-09-16T22:08:00,pth,12.00
2023-09-16T22:10:00,pth,13.20
2023-09-16T22:11:00,pth,6.00
2023-09-16T22:12:00,pth,1.20
2023-09-16T22:14:00,pth,13.20
2023-09-16T22:15:00,pth,7.20
2023-09-16T22:16:00,pth,6.00
2023-09-16T22:18:00,pth,6.00
2023-09-16T22:20:00,pth,14.40
2023-09-16T22:22:00,pth,13.20
2023-09-16T22:24:00,pth,6.00
2023-09-16T22:26:00,pth,14.40
2023-09-16T22:28:00,pth,12.00
2023-09-16T22:30:00,pth,7.20
2023-09-16T22:32:00,pth,13.20
2023-09-16T22:34:00,pth,8.40
2023-09-16T22:36:00,pth,3.60
2023-09-16T22:37:00,pth,1.20
2023-09-16T22:39:00,pth,2.40
2023-09-16T22:41:00,pth,2.40
2023-09-16T22:43:00,pth,2.40
2023-09-16T22:44:00,pth,1.20
2023-09-16T22:45:00,pth,2.40
2023-09-16T22:47:00,pth,2.40
2023-09-16T22:48:00,pth,1.20
2023-09-16T22:50:00,pth,3.60
2023-09-16T22:52:00,pth,2.40
2023-09-16T22:53:00,pth,1.20
2023-09-16T22:55:00,pth,2.40
2023-09-16T22:56:00,pth,1.20
2023-09-16T22:58:00,pth,2.40
2023-09-16T23:00:00,pth,3.60
2023-09-16T23:02:00,pth,2.40
2023-09-16T23:03:00,pth,1.20
2023-09-16T23:05:00,pth,2.40
2023-09-16T23:07:00,pth,3.60
2023-09-16T23:09:00,pth,2.40
2023-09-16T23:11:00,pth,3.60
2023-09-16T23:12:00,pth,1.20
2023-09-16T23:14:00,pth,2.40
2023-09-16T23:16:00,pth,2.40
2023-09-16T23:18:00,pth,2.40
2023-09-16T23:20:00,pth,3.60
2023-09-16T23:22:00,pth,2.40
2023-09-16T23:24:00,pth,2.40
2023-09-16T23:26:00,pth,3.60
2023-09-16T23:27:00,pth,1.20
2023-09-16T23:29:00,pth,2.40
2023-09-16T23:30:00,pth,1.20
2023-09-16T23:32:00,pth,3.60
2023-09-16T23:34:00,pth,2.40
2023-09-16T23:36:00,pth,3.60
2023-09-16T23:38:00,pth,2.40
2023-09-16T23:40:00,pth,2.40
2023-09-16T23:42:00,pth,3.60
2023-09-16T23:43:00,pth,1.20
2023-09-16T23:44:00,pth,1.20
2023-09-16T23:46:00,pth,2.40
2023-09-16T23:48:00,pth,2.40
2023-09-16T23:49:00,pth,1.20
2023-09-16T23:51:00,pth,2.40
2023-09-16T23:53:00,pth,2.40
2023-09-16T23:54:00,pth,1.20
2023-09-16T23:56:00,pth,2.40
2023-09-16T23:58:00,pth,2.40
2023-09-16T23:59:00,pth,1.20
